Year,Month,Day,Hour,Minute,Value (Times are PST for windspeed in km/hr)
2010,06,03,00,00,17.30
2010,06,03,00,01,7.20
2010,06,03,00,02,8.00
2010,06,03,00,03,2.50
2010,06,03,00,04,6.10
2010,06,03,00,05,14.30
2010,06,03,00,06,11.20
2010,06,03,00,07,8.40
2010,06,03,00,08,3.80
2010,06,03,00,09,5.60
2010,06,03,00,10,6.00
2010,06,03,00,11,6.60
2010,06,03,00,12,4.00
2010,06,03,00,13,8.60
2010,06,03,00,14,6.40
2010,06,03,00,15,6.00
2010,06,03,00,16,10.20
2010,06,03,00,17,3.50
2010,06,03,00,18,5.80
2010,06,03,00,19,7.20
2010,06,03,00,20,13.80
2010,06,03,00,21,8.80
2010,06,03,00,22,4.70
2010,06,03,00,23,5.90
2010,06,03,00,24,6.40
2010,06,03,00,25,9.20
2010,06,03,00,26,11.70
2010,06,03,00,27,5.50
2010,06,03,00,28,5.50
2010,06,03,00,29,4.40
2010,06,03,00,30,2.50
2010,06,03,00,31,3.80
2010,06,03,00,32,7.20
2010,06,03,00,33,9.40
2010,06,03,00,34,7.20
2010,06,03,00,35,2.30
2010,06,03,00,36,3.40
2010,06,03,00,37,8.00
2010,06,03,00,38,7.20
2010,06,03,00,39,9.10
2010,06,03,00,40,7.60
2010,06,03,00,41,5.10
2010,06,03,00,42,7.50
2010,06,03,00,43,7.30
2010,06,03,00,44,7.50
2010,06,03,00,45,7.70
2010,06,03,00,46,7.10
2010,06,03,00,47,10.40
2010,06,03,00,48,9.30
2010,06,03,00,49,7.60
2010,06,03,00,50,9.70
2010,06,03,00,51,9.90
2010,06,03,00,52,12.10
2010,06,03,00,53,8.60
2010,06,03,00,54,8.70
2010,06,03,00,55,6.20
2010,06,03,00,56,9.30
2010,06,03,00,57,8.90
2010,06,03,00,58,8.00
2010,06,03,00,59,6.30
2010,06,03,01,00,8.90
2010,06,03,01,01,7.70
2010,06,03,01,02,9.10
2010,06,03,01,03,8.40
2010,06,03,01,04,6.40
2010,06,03,01,05,9.70
2010,06,03,01,06,8.00
2010,06,03,01,07,6.70
2010,06,03,01,08,8.00
2010,06,03,01,09,6.40
2010,06,03,01,10,9.90
2010,06,03,01,11,9.00
2010,06,03,01,12,10.10
2010,06,03,01,13,9.50
2010,06,03,01,14,6.50
2010,06,03,01,15,7.60
2010,06,03,01,16,7.20
2010,06,03,01,17,8.00
2010,06,03,01,18,6.70
2010,06,03,01,19,8.90
2010,06,03,01,20,8.80
2010,06,03,01,21,8.80
2010,06,03,01,22,6.30
2010,06,03,01,23,5.70
2010,06,03,01,24,7.20
2010,06,03,01,25,8.10
2010,06,03,01,26,15.70
2010,06,03,01,27,15.90
2010,06,03,01,28,8.00
2010,06,03,01,29,10.10
2010,06,03,01,30,11.50
2010,06,03,01,31,5.50
2010,06,03,01,32,6.30
2010,06,03,01,33,9.30
2010,06,03,01,34,7.20
2010,06,03,01,35,11.60
2010,06,03,01,36,5.70
2010,06,03,01,37,6.80
2010,06,03,01,38,6.20
2010,06,03,01,39,5.20
2010,06,03,01,40,4.30
2010,06,03,01,41,5.70
2010,06,03,01,42,4.30
2010,06,03,01,43,5.80
2010,06,03,01,44,6.10
2010,06,03,01,45,6.90
2010,06,03,01,46,5.50
2010,06,03,01,47,4.60
2010,06,03,01,48,7.10
2010,06,03,01,49,8.40
2010,06,03,01,50,9.20
2010,06,03,01,51,6.00
2010,06,03,01,52,9.60
2010,06,03,01,53,6.30
2010,06,03,01,54,5.30
2010,06,03,01,55,6.20
2010,06,03,01,56,1.50
2010,06,03,01,57,9.80
2010,06,03,01,58,9.00
2010,06,03,01,59,7.60
2010,06,03,02,00,12.70
2010,06,03,02,01,8.40
2010,06,03,02,02,5.70
2010,06,03,02,03,8.00
2010,06,03,02,04,10.00
2010,06,03,02,05,7.80
2010,06,03,02,06,8.70
2010,06,03,02,07,11.40
2010,06,03,02,08,9.40
2010,06,03,02,09,5.10
2010,06,03,02,10,8.10
2010,06,03,02,11,8.20
2010,06,03,02,12,5.90
2010,06,03,02,13,8.60
2010,06,03,02,14,11.00
2010,06,03,02,15,16.00
2010,06,03,02,16,14.20
2010,06,03,02,17,11.10
2010,06,03,02,18,10.10
2010,06,03,02,19,10.20
2010,06,03,02,20,13.40
2010,06,03,02,21,11.70
2010,06,03,02,22,14.70
2010,06,03,02,23,10.00
2010,06,03,02,24,12.10
2010,06,03,02,25,10.40
2010,06,03,02,26,9.70
2010,06,03,02,27,12.20
2010,06,03,02,28,8.80
2010,06,03,02,29,11.00
2010,06,03,02,30,8.10
2010,06,03,02,31,7.20
2010,06,03,02,32,11.70
2010,06,03,02,33,14.00
2010,06,03,02,34,9.40
2010,06,03,02,35,9.40
2010,06,03,02,36,7.60
2010,06,03,02,37,10.20
2010,06,03,02,38,10.90
2010,06,03,02,39,9.30
2010,06,03,02,40,12.30
2010,06,03,02,41,10.80
2010,06,03,02,42,14.90
2010,06,03,02,43,14.70
2010,06,03,02,44,15.40
2010,06,03,02,45,6.10
2010,06,03,02,46,9.80
2010,06,03,02,47,10.80
2010,06,03,02,48,13.20
2010,06,03,02,49,12.00
2010,06,03,02,50,10.50
2010,06,03,02,51,11.40
2010,06,03,02,52,8.20
2010,06,03,02,53,13.00
2010,06,03,02,54,14.00
2010,06,03,02,55,14.50
2010,06,03,02,56,11.80
2010,06,03,02,57,9.20
2010,06,03,02,58,6.40
2010,06,03,02,59,9.60
2010,06,03,03,00,6.10
2010,06,03,03,01,8.30
2010,06,03,03,02,8.30
2010,06,03,03,03,13.20
2010,06,03,03,04,9.30
2010,06,03,03,05,8.10
2010,06,03,03,06,8.40
2010,06,03,03,07,6.60
2010,06,03,03,08,5.60
2010,06,03,03,09,6.80
2010,06,03,03,10,8.40
2010,06,03,03,11,7.50
2010,06,03,03,12,10.00
2010,06,03,03,13,6.70
2010,06,03,03,14,8.30
2010,06,03,03,15,11.90
2010,06,03,03,16,8.50
2010,06,03,03,17,9.20
2010,06,03,03,18,7.70
2010,06,03,03,19,2.70
2010,06,03,03,20,2.90
2010,06,03,03,21,1.20
2010,06,03,03,22,2.30
2010,06,03,03,23,3.30
2010,06,03,03,24,5.50
2010,06,03,03,25,4.00
2010,06,03,03,26,6.10
2010,06,03,03,27,3.30
2010,06,03,03,28,2.10
2010,06,03,03,29,4.70
2010,06,03,03,30,3.60
2010,06,03,03,31,5.40
2010,06,03,03,32,6.00
2010,06,03,03,33,4.70
2010,06,03,03,34,4.30
2010,06,03,03,35,7.00
2010,06,03,03,36,8.00
2010,06,03,03,37,8.10
2010,06,03,03,38,7.50
2010,06,03,03,39,10.90
2010,06,03,03,40,3.60
2010,06,03,03,41,0.50
2010,06,03,03,42,0.60
2010,06,03,03,43,3.80
2010,06,03,03,44,5.70
2010,06,03,03,45,2.80
2010,06,03,03,46,5.70
2010,06,03,03,47,2.00
2010,06,03,03,48,3.50
2010,06,03,03,49,3.70
2010,06,03,03,50,4.30
2010,06,03,03,51,4.60
2010,06,03,03,52,4.00
2010,06,03,03,53,6.00
2010,06,03,03,54,8.40
2010,06,03,03,55,4.30
2010,06,03,03,56,4.70
2010,06,03,03,57,6.40
2010,06,03,03,58,4.70
2010,06,03,03,59,3.10
2010,06,03,04,00,2.50
2010,06,03,04,01,3.60
2010,06,03,04,02,4.80
2010,06,03,04,03,7.10
2010,06,03,04,04,3.50
2010,06,03,04,05,4.20
2010,06,03,04,06,2.60
2010,06,03,04,07,3.60
2010,06,03,04,08,3.50
2010,06,03,04,09,3.20
2010,06,03,04,10,1.90
2010,06,03,04,11,2.10
2010,06,03,04,12,3.10
2010,06,03,04,13,2.70
2010,06,03,04,14,2.80
2010,06,03,04,15,4.00
2010,06,03,04,16,1.50
2010,06,03,04,17,0.40
2010,06,03,04,18,4.60
2010,06,03,04,19,4.10
2010,06,03,04,20,4.50
2010,06,03,04,21,2.40
2010,06,03,04,22,1.70
2010,06,03,04,23,5.60
2010,06,03,04,24,4.20
2010,06,03,04,25,6.00
2010,06,03,04,26,4.00
2010,06,03,04,27,3.10
2010,06,03,04,28,4.00
2010,06,03,04,29,3.30
2010,06,03,04,30,3.30
2010,06,03,04,31,3.10
2010,06,03,04,32,5.60
2010,06,03,04,33,5.90
2010,06,03,04,34,4.30
2010,06,03,04,35,5.60
2010,06,03,04,36,2.10
2010,06,03,04,37,0.90
2010,06,03,04,38,3.80
2010,06,03,04,39,4.70
2010,06,03,04,40,4.70
2010,06,03,04,41,3.90
2010,06,03,04,42,3.90
2010,06,03,04,43,4.20
2010,06,03,04,44,4.10
2010,06,03,04,45,4.10
2010,06,03,04,46,2.90
2010,06,03,04,47,4.20
2010,06,03,04,48,0.20
2010,06,03,04,49,2.60
2010,06,03,04,50,5.30
2010,06,03,04,51,3.90
2010,06,03,04,52,6.10
2010,06,03,04,53,3.70
2010,06,03,04,54,4.30
2010,06,03,04,55,5.20
2010,06,03,04,56,4.50
2010,06,03,04,57,4.40
2010,06,03,04,58,3.60
2010,06,03,04,59,5.00
2010,06,03,05,00,2.70
2010,06,03,05,01,2.10
2010,06,03,05,02,2.90
2010,06,03,05,03,6.40
2010,06,03,05,04,2.90
2010,06,03,05,05,2.50
2010,06,03,05,06,3.60
2010,06,03,05,07,3.10
2010,06,03,05,08,3.50
2010,06,03,05,09,2.50
2010,06,03,05,10,3.20
2010,06,03,05,11,2.70
2010,06,03,05,12,2.20
2010,06,03,05,13,2.80
2010,06,03,05,14,4.30
2010,06,03,05,15,1.80
2010,06,03,05,16,2.40
2010,06,03,05,17,0.30
2010,06,03,05,18,2.90
2010,06,03,05,19,3.90
2010,06,03,05,20,5.80
2010,06,03,05,21,3.20
2010,06,03,05,22,3.30
2010,06,03,05,23,2.70
2010,06,03,05,24,4.60
2010,06,03,05,25,0.80
2010,06,03,05,26,2.80
2010,06,03,05,27,5.60
2010,06,03,05,28,3.10
2010,06,03,05,29,3.10
2010,06,03,05,30,4.10
2010,06,03,05,31,1.10
2010,06,03,05,32,2.70
2010,06,03,05,33,3.50
2010,06,03,05,34,4.80
2010,06,03,05,35,2.60
2010,06,03,05,36,0.70
2010,06,03,05,37,2.60
2010,06,03,05,38,0.70
2010,06,03,05,39,2.50
2010,06,03,05,40,1.60
2010,06,03,05,41,1.10
2010,06,03,05,42,3.50
2010,06,03,05,43,2.20
2010,06,03,05,44,0.10
2010,06,03,05,45,0.80
2010,06,03,05,46,0.10
2010,06,03,05,47,0.40
2010,06,03,05,48,3.00
2010,06,03,05,49,1.00
2010,06,03,05,50,2.90
2010,06,03,05,51,2.60
2010,06,03,05,52,3.90
2010,06,03,05,53,3.10
2010,06,03,05,54,1.50
2010,06,03,05,55,2.30
2010,06,03,05,56,1.90
2010,06,03,05,57,4.50
2010,06,03,05,58,3.70
2010,06,03,05,59,2.00
2010,06,03,06,00,4.80
2010,06,03,06,01,2.70
2010,06,03,06,02,4.40
2010,06,03,06,03,6.30
2010,06,03,06,04,5.90
2010,06,03,06,05,4.20
2010,06,03,06,06,4.20
2010,06,03,06,07,3.80
2010,06,03,06,08,5.30
2010,06,03,06,09,3.60
2010,06,03,06,10,3.60
2010,06,03,06,11,4.30
2010,06,03,06,12,2.30
2010,06,03,06,13,0.40
2010,06,03,06,14,2.90
2010,06,03,06,15,4.50
2010,06,03,06,16,4.70
2010,06,03,06,17,3.40
2010,06,03,06,18,1.10
2010,06,03,06,19,2.60
2010,06,03,06,20,3.80
2010,06,03,06,21,1.90
2010,06,03,06,22,2.50
2010,06,03,06,23,5.00
2010,06,03,06,24,5.60
2010,06,03,06,25,3.90
2010,06,03,06,26,3.70
2010,06,03,06,27,0.20
2010,06,03,06,28,2.30
2010,06,03,06,29,2.50
2010,06,03,06,30,3.00
2010,06,03,06,31,2.10
2010,06,03,06,32,4.10
2010,06,03,06,33,4.00
2010,06,03,06,34,2.30
2010,06,03,06,35,4.40
2010,06,03,06,36,3.80
2010,06,03,06,37,2.80
2010,06,03,06,38,2.60
2010,06,03,06,39,2.20
2010,06,03,06,40,2.00
2010,06,03,06,41,2.90
2010,06,03,06,42,3.70
2010,06,03,06,43,2.70
2010,06,03,06,44,1.10
2010,06,03,06,45,1.00
2010,06,03,06,46,0.10
2010,06,03,06,47,1.90
2010,06,03,06,48,3.50
2010,06,03,06,49,0.80
2010,06,03,06,50,1.70
2010,06,03,06,51,3.10
2010,06,03,06,52,1.20
2010,06,03,06,53,0.00
2010,06,03,06,54,0.10
2010,06,03,06,55,1.90
2010,06,03,06,56,1.50
2010,06,03,06,57,0.20
2010,06,03,06,58,2.20
2010,06,03,06,59,0.40
2010,06,03,07,00,0.10
2010,06,03,07,01,3.70
2010,06,03,07,02,1.30
2010,06,03,07,03,0.60
2010,06,03,07,04,0.10
2010,06,03,07,05,2.20
2010,06,03,07,06,1.00
2010,06,03,07,07,1.50
2010,06,03,07,08,0.90
2010,06,03,07,09,0.60
2010,06,03,07,10,1.80
2010,06,03,07,11,0.10
2010,06,03,07,12,2.20
2010,06,03,07,13,1.60
2010,06,03,07,14,0.10
2010,06,03,07,15,0.00
2010,06,03,07,16,0.10
2010,06,03,07,17,0.00
2010,06,03,07,18,0.00
2010,06,03,07,19,0.00
2010,06,03,07,20,0.30
2010,06,03,07,21,0.60
2010,06,03,07,22,2.00
2010,06,03,07,23,1.10
2010,06,03,07,24,1.80
2010,06,03,07,25,1.80
2010,06,03,07,26,1.20
2010,06,03,07,27,0.20
2010,06,03,07,28,0.00
2010,06,03,07,29,0.00
2010,06,03,07,30,0.20
2010,06,03,07,31,2.00
2010,06,03,07,32,1.60
2010,06,03,07,33,1.30
2010,06,03,07,34,1.60
2010,06,03,07,35,0.70
2010,06,03,07,36,0.60
2010,06,03,07,37,0.70
2010,06,03,07,38,0.70
2010,06,03,07,39,2.50
2010,06,03,07,40,0.40
2010,06,03,07,41,0.20
2010,06,03,07,42,0.00
2010,06,03,07,43,0.10
2010,06,03,07,44,1.70
2010,06,03,07,45,0.10
2010,06,03,07,46,2.00
2010,06,03,07,47,3.00
2010,06,03,07,48,3.60
2010,06,03,07,49,0.50
2010,06,03,07,50,3.20
2010,06,03,07,51,5.60
2010,06,03,07,52,3.90
2010,06,03,07,53,5.20
2010,06,03,07,54,7.20
2010,06,03,07,55,5.00
2010,06,03,07,56,3.90
2010,06,03,07,57,4.70
2010,06,03,07,58,5.30
2010,06,03,07,59,4.30
2010,06,03,08,00,5.10
2010,06,03,08,01,8.90
2010,06,03,08,02,5.00
2010,06,03,08,03,8.90
2010,06,03,08,04,9.70
2010,06,03,08,05,8.80
2010,06,03,08,06,6.80
2010,06,03,08,07,5.50
2010,06,03,08,08,7.00
2010,06,03,08,09,8.80
2010,06,03,08,10,3.80
2010,06,03,08,11,5.10
2010,06,03,08,12,10.20
2010,06,03,08,13,10.70
2010,06,03,08,14,11.90
2010,06,03,08,15,8.10
2010,06,03,08,16,9.80
2010,06,03,08,17,13.40
2010,06,03,08,18,15.30
2010,06,03,08,19,14.60
2010,06,03,08,20,8.90
2010,06,03,08,21,4.90
2010,06,03,08,22,8.40
2010,06,03,08,23,7.30
2010,06,03,08,24,9.80
2010,06,03,08,25,8.50
2010,06,03,08,26,14.40
2010,06,03,08,27,6.40
2010,06,03,08,28,6.10
2010,06,03,08,29,12.60
2010,06,03,08,30,10.00
2010,06,03,08,31,7.70
2010,06,03,08,32,10.70
2010,06,03,08,33,15.40
2010,06,03,08,34,8.00
2010,06,03,08,35,7.70
2010,06,03,08,36,7.80
2010,06,03,08,37,5.20
2010,06,03,08,38,6.20
2010,06,03,08,39,10.10
2010,06,03,08,40,8.20
2010,06,03,08,41,8.60
2010,06,03,08,42,8.70
2010,06,03,08,43,7.90
2010,06,03,08,44,7.20
2010,06,03,08,45,5.00
2010,06,03,08,46,9.30
2010,06,03,08,47,11.90
2010,06,03,08,48,9.10
2010,06,03,08,49,9.00
2010,06,03,08,50,4.00
2010,06,03,08,51,6.60
2010,06,03,08,52,4.70
2010,06,03,08,53,7.90
2010,06,03,08,54,6.00
2010,06,03,08,55,3.50
2010,06,03,08,56,11.40
2010,06,03,08,57,9.00
2010,06,03,08,58,13.00
2010,06,03,08,59,4.50
2010,06,03,09,00,8.40
2010,06,03,09,01,10.40
2010,06,03,09,02,7.40
2010,06,03,09,03,8.30
2010,06,03,09,04,4.50
2010,06,03,09,05,13.10
2010,06,03,09,06,16.30
2010,06,03,09,07,11.60
2010,06,03,09,08,11.70
2010,06,03,09,09,8.50
2010,06,03,09,10,3.10
2010,06,03,09,11,3.00
2010,06,03,09,12,11.90
2010,06,03,09,13,8.40
2010,06,03,09,14,6.80
2010,06,03,09,15,5.80
2010,06,03,09,16,8.40
2010,06,03,09,17,10.20
2010,06,03,09,18,9.70
2010,06,03,09,19,15.80
2010,06,03,09,20,13.20
2010,06,03,09,21,7.90
2010,06,03,09,22,11.90
2010,06,03,09,23,10.10
2010,06,03,09,24,15.60
2010,06,03,09,25,10.50
2010,06,03,09,26,11.10
2010,06,03,09,27,4.90
2010,06,03,09,28,5.40
2010,06,03,09,29,6.70
2010,06,03,09,30,7.10
2010,06,03,09,31,10.90
2010,06,03,09,32,18.20
2010,06,03,09,33,13.40
2010,06,03,09,34,10.20
2010,06,03,09,35,10.10
2010,06,03,09,36,13.70
2010,06,03,09,37,18.50
2010,06,03,09,38,13.80
2010,06,03,09,39,14.90
2010,06,03,09,40,8.70
2010,06,03,09,41,17.30
2010,06,03,09,42,7.70
2010,06,03,09,43,13.90
2010,06,03,09,44,16.80
2010,06,03,09,45,15.30
2010,06,03,09,46,8.10
2010,06,03,09,47,12.80
2010,06,03,09,48,15.00
2010,06,03,09,49,16.30
2010,06,03,09,50,9.80
2010,06,03,09,51,11.80
2010,06,03,09,52,11.50
2010,06,03,09,53,14.30
2010,06,03,09,54,14.10
2010,06,03,09,55,14.10
2010,06,03,09,56,14.70
2010,06,03,09,57,17.10
2010,06,03,09,58,16.80
2010,06,03,09,59,7.40
2010,06,03,10,00,15.70
2010,06,03,10,01,18.60
2010,06,03,10,02,10.00
2010,06,03,10,03,10.40
2010,06,03,10,04,10.10
2010,06,03,10,05,17.90
2010,06,03,10,06,10.10
2010,06,03,10,07,11.90
2010,06,03,10,08,13.60
2010,06,03,10,09,5.50
2010,06,03,10,10,5.80
2010,06,03,10,11,19.30
2010,06,03,10,12,15.90
2010,06,03,10,13,13.00
2010,06,03,10,14,14.20
2010,06,03,10,15,12.30
2010,06,03,10,16,15.80
2010,06,03,10,17,13.80
2010,06,03,10,18,11.80
2010,06,03,10,19,6.20
2010,06,03,10,20,8.60
2010,06,03,10,21,12.00
2010,06,03,10,22,4.20
2010,06,03,10,23,3.00
2010,06,03,10,24,4.00
2010,06,03,10,25,3.80
2010,06,03,10,26,8.10
2010,06,03,10,27,16.40
2010,06,03,10,28,10.10
2010,06,03,10,29,8.70
2010,06,03,10,30,9.90
2010,06,03,10,31,13.80
2010,06,03,10,32,12.10
2010,06,03,10,33,8.00
2010,06,03,10,34,8.60
2010,06,03,10,35,13.70
2010,06,03,10,36,17.90
2010,06,03,10,37,9.30
2010,06,03,10,38,6.90
2010,06,03,10,39,8.80
2010,06,03,10,40,3.60
2010,06,03,10,41,10.50
2010,06,03,10,42,9.80
2010,06,03,10,43,8.00
2010,06,03,10,44,10.80
2010,06,03,10,45,15.20
2010,06,03,10,46,6.70
2010,06,03,10,47,2.90
2010,06,03,10,48,13.80
2010,06,03,10,49,20.40
2010,06,03,10,50,10.30
2010,06,03,10,51,10.70
2010,06,03,10,52,11.10
2010,06,03,10,53,14.60
2010,06,03,10,54,15.20
2010,06,03,10,55,3.30
2010,06,03,10,56,12.60
2010,06,03,10,57,10.10
2010,06,03,10,58,13.30
2010,06,03,10,59,17.10
2010,06,03,11,00,15.80
2010,06,03,11,01,20.10
2010,06,03,11,02,11.30
2010,06,03,11,03,3.70
2010,06,03,11,04,4.90
2010,06,03,11,05,13.80
2010,06,03,11,06,13.70
2010,06,03,11,07,12.20
2010,06,03,11,08,6.20
2010,06,03,11,09,12.90
2010,06,03,11,10,10.50
2010,06,03,11,11,8.20
2010,06,03,11,12,8.60
2010,06,03,11,13,10.40
2010,06,03,11,14,13.20
2010,06,03,11,15,11.90
2010,06,03,11,16,10.70
2010,06,03,11,17,16.40
2010,06,03,11,18,18.10
2010,06,03,11,19,12.10
2010,06,03,11,20,12.70
2010,06,03,11,21,15.10
2010,06,03,11,22,15.30
2010,06,03,11,23,18.40
2010,06,03,11,24,14.50
2010,06,03,11,25,17.20
2010,06,03,11,26,11.30
2010,06,03,11,27,11.00
2010,06,03,11,28,6.50
2010,06,03,11,29,13.10
2010,06,03,11,30,8.90
2010,06,03,11,31,9.10
2010,06,03,11,32,9.10
2010,06,03,11,33,6.90
2010,06,03,11,34,2.70
2010,06,03,11,35,8.50
2010,06,03,11,36,10.40
2010,06,03,11,37,5.20
2010,06,03,11,38,8.50
2010,06,03,11,39,7.20
2010,06,03,11,40,2.90
2010,06,03,11,41,8.50
2010,06,03,11,42,12.40
2010,06,03,11,43,7.70
2010,06,03,11,44,9.30
2010,06,03,11,45,15.20
2010,06,03,11,46,8.90
2010,06,03,11,47,12.50
2010,06,03,11,48,12.40
2010,06,03,11,49,10.50
2010,06,03,11,50,6.20
2010,06,03,11,51,7.60
2010,06,03,11,52,10.60
2010,06,03,11,53,18.30
2010,06,03,11,54,11.40
2010,06,03,11,55,14.80
2010,06,03,11,56,6.00
2010,06,03,11,57,14.00
2010,06,03,11,58,9.00
2010,06,03,11,59,11.30
2010,06,03,12,00,18.00
2010,06,03,12,01,14.10
2010,06,03,12,02,12.80
2010,06,03,12,03,8.30
2010,06,03,12,04,18.80
2010,06,03,12,05,16.30
2010,06,03,12,06,7.00
2010,06,03,12,07,9.00
2010,06,03,12,08,13.00
2010,06,03,12,09,9.80
2010,06,03,12,10,8.20
2010,06,03,12,11,5.50
2010,06,03,12,12,10.60
2010,06,03,12,13,10.70
2010,06,03,12,14,11.10
2010,06,03,12,15,8.10
2010,06,03,12,16,6.40
2010,06,03,12,17,7.60
2010,06,03,12,18,8.70
2010,06,03,12,19,8.00
2010,06,03,12,20,15.20
2010,06,03,12,21,7.80
2010,06,03,12,22,8.20
2010,06,03,12,23,8.50
2010,06,03,12,24,10.00
2010,06,03,12,25,10.50
2010,06,03,12,26,9.80
2010,06,03,12,27,9.70
2010,06,03,12,28,7.50
2010,06,03,12,29,10.80
2010,06,03,12,30,8.50
2010,06,03,12,31,16.20
2010,06,03,12,32,6.10
2010,06,03,12,33,9.30
2010,06,03,12,34,14.50
2010,06,03,12,35,14.70
2010,06,03,12,36,13.40
2010,06,03,12,37,15.40
2010,06,03,12,38,9.20
2010,06,03,12,39,2.40
2010,06,03,12,40,6.80
2010,06,03,12,41,3.70
2010,06,03,12,42,6.90
2010,06,03,12,43,10.30
2010,06,03,12,44,8.10
2010,06,03,12,45,6.40
2010,06,03,12,46,9.30
2010,06,03,12,47,11.70
2010,06,03,12,48,16.10
2010,06,03,12,49,11.40
2010,06,03,12,50,8.40
2010,06,03,12,51,13.00
2010,06,03,12,52,8.00
2010,06,03,12,53,5.90
2010,06,03,12,54,1.60
2010,06,03,12,55,5.70
2010,06,03,12,56,4.10
2010,06,03,12,57,8.00
2010,06,03,12,58,12.20
2010,06,03,12,59,7.30
2010,06,03,13,00,3.80
2010,06,03,13,01,4.90
2010,06,03,13,02,5.80
2010,06,03,13,03,9.20
2010,06,03,13,04,13.60
2010,06,03,13,05,8.90
2010,06,03,13,06,7.20
2010,06,03,13,07,5.50
2010,06,03,13,08,3.90
2010,06,03,13,09,14.50
2010,06,03,13,10,15.00
2010,06,03,13,11,12.40
2010,06,03,13,12,12.50
2010,06,03,13,13,11.90
2010,06,03,13,14,13.10
2010,06,03,13,15,9.40
2010,06,03,13,16,3.60
2010,06,03,13,17,4.10
2010,06,03,13,18,4.40
2010,06,03,13,19,7.20
2010,06,03,13,20,6.40
2010,06,03,13,21,3.20
2010,06,03,13,22,6.00
2010,06,03,13,23,9.90
2010,06,03,13,24,13.90
2010,06,03,13,25,11.90
2010,06,03,13,26,7.50
2010,06,03,13,27,6.70
2010,06,03,13,28,5.10
2010,06,03,13,29,4.90
2010,06,03,13,30,2.90
2010,06,03,13,31,9.10
2010,06,03,13,32,4.90
2010,06,03,13,33,3.70
2010,06,03,13,34,10.30
2010,06,03,13,35,8.60
2010,06,03,13,36,6.30
2010,06,03,13,37,12.40
2010,06,03,13,38,6.70
2010,06,03,13,39,8.00
2010,06,03,13,40,5.80
2010,06,03,13,41,2.00
2010,06,03,13,42,2.10
2010,06,03,13,43,9.80
2010,06,03,13,44,8.90
2010,06,03,13,45,7.70
2010,06,03,13,46,4.20
2010,06,03,13,47,5.20
2010,06,03,13,48,8.00
2010,06,03,13,49,9.40
2010,06,03,13,50,10.00
2010,06,03,13,51,10.80
2010,06,03,13,52,10.40
2010,06,03,13,53,11.50
2010,06,03,13,54,9.20
2010,06,03,13,55,7.50
2010,06,03,13,56,5.40
2010,06,03,13,57,6.30
2010,06,03,13,58,7.60
2010,06,03,13,59,11.00
2010,06,03,14,00,4.90
2010,06,03,14,01,7.50
2010,06,03,14,02,6.80
2010,06,03,14,03,4.60
2010,06,03,14,04,2.20
2010,06,03,14,05,7.30
2010,06,03,14,06,6.40
2010,06,03,14,07,12.20
2010,06,03,14,08,12.10
2010,06,03,14,09,14.20
2010,06,03,14,10,8.90
2010,06,03,14,11,8.80
2010,06,03,14,12,10.50
2010,06,03,14,13,7.70
2010,06,03,14,14,6.10
2010,06,03,14,15,4.90
2010,06,03,14,16,6.80
2010,06,03,14,17,1.90
2010,06,03,14,18,10.50
2010,06,03,14,19,5.80
2010,06,03,14,20,7.30
2010,06,03,14,21,5.90
2010,06,03,14,22,13.40
2010,06,03,14,23,11.70
2010,06,03,14,24,14.30
2010,06,03,14,25,10.00
2010,06,03,14,26,9.40
2010,06,03,14,27,9.50
2010,06,03,14,28,11.20
2010,06,03,14,29,16.20
2010,06,03,14,30,7.00
2010,06,03,14,31,10.00
2010,06,03,14,32,13.00
2010,06,03,14,33,5.40
2010,06,03,14,34,4.00
2010,06,03,14,35,2.20
2010,06,03,14,36,12.60
2010,06,03,14,37,14.00
2010,06,03,14,38,13.20
2010,06,03,14,39,16.70
2010,06,03,14,40,12.10
2010,06,03,14,41,9.70
2010,06,03,14,42,7.40
2010,06,03,14,43,9.50
2010,06,03,14,44,8.40
2010,06,03,14,45,9.80
2010,06,03,14,46,4.40
2010,06,03,14,47,6.40
2010,06,03,14,48,9.30
2010,06,03,14,49,8.70
2010,06,03,14,50,9.30
2010,06,03,14,51,7.50
2010,06,03,14,52,8.10
2010,06,03,14,53,8.90
2010,06,03,14,54,4.40
2010,06,03,14,55,8.30
2010,06,03,14,56,10.60
2010,06,03,14,57,5.50
2010,06,03,14,58,8.90
2010,06,03,14,59,8.10
2010,06,03,15,00,5.00
2010,06,03,15,01,9.60
2010,06,03,15,02,7.30
2010,06,03,15,03,10.00
2010,06,03,15,04,6.80
2010,06,03,15,05,6.90
2010,06,03,15,06,13.40
2010,06,03,15,07,10.80
2010,06,03,15,08,11.90
2010,06,03,15,09,12.00
2010,06,03,15,10,5.60
2010,06,03,15,11,4.20
2010,06,03,15,12,5.20
2010,06,03,15,13,4.60
2010,06,03,15,14,6.40
2010,06,03,15,15,2.40
2010,06,03,15,16,3.00
2010,06,03,15,17,10.00
2010,06,03,15,18,4.80
2010,06,03,15,19,11.00
2010,06,03,15,20,12.00
2010,06,03,15,21,8.80
2010,06,03,15,22,7.50
2010,06,03,15,23,7.90
2010,06,03,15,24,7.60
2010,06,03,15,25,5.60
2010,06,03,15,26,14.60
2010,06,03,15,27,13.20
2010,06,03,15,28,9.50
2010,06,03,15,29,12.70
2010,06,03,15,30,5.70
2010,06,03,15,31,4.70
2010,06,03,15,32,9.00
2010,06,03,15,33,14.00
2010,06,03,15,34,14.50
2010,06,03,15,35,12.10
2010,06,03,15,36,9.00
2010,06,03,15,37,6.80
2010,06,03,15,38,7.40
2010,06,03,15,39,8.60
2010,06,03,15,40,8.80
2010,06,03,15,41,3.20
2010,06,03,15,42,4.70
2010,06,03,15,43,6.10
2010,06,03,15,44,9.70
2010,06,03,15,45,4.40
2010,06,03,15,46,4.30
2010,06,03,15,47,6.10
2010,06,03,15,48,4.80
2010,06,03,15,49,6.70
2010,06,03,15,50,7.50
2010,06,03,15,51,7.00
2010,06,03,15,52,6.10
2010,06,03,15,53,9.40
2010,06,03,15,54,8.50
2010,06,03,15,55,8.60
2010,06,03,15,56,7.20
2010,06,03,15,57,7.80
2010,06,03,15,58,4.70
2010,06,03,15,59,8.00
2010,06,03,16,00,8.40
2010,06,03,16,01,8.40
2010,06,03,16,02,8.30
2010,06,03,16,03,12.80
2010,06,03,16,04,6.30
2010,06,03,16,05,7.60
2010,06,03,16,06,9.00
2010,06,03,16,07,10.00
2010,06,03,16,08,6.70
2010,06,03,16,09,8.50
2010,06,03,16,10,10.10
2010,06,03,16,11,5.20
2010,06,03,16,12,7.60
2010,06,03,16,13,8.80
2010,06,03,16,14,9.30
2010,06,03,16,15,4.60
2010,06,03,16,16,1.10
2010,06,03,16,17,5.50
2010,06,03,16,18,3.60
2010,06,03,16,19,8.20
2010,06,03,16,20,8.10
2010,06,03,16,21,7.10
2010,06,03,16,22,6.30
2010,06,03,16,23,9.80
2010,06,03,16,24,10.70
2010,06,03,16,25,11.40
2010,06,03,16,26,13.40
2010,06,03,16,27,9.70
2010,06,03,16,28,8.80
2010,06,03,16,29,9.90
2010,06,03,16,30,6.90
2010,06,03,16,31,7.00
2010,06,03,16,32,7.60
2010,06,03,16,33,9.70
2010,06,03,16,34,5.10
2010,06,03,16,35,4.40
2010,06,03,16,36,5.70
2010,06,03,16,37,8.10
2010,06,03,16,38,8.80
2010,06,03,16,39,7.60
2010,06,03,16,40,9.20
2010,06,03,16,41,8.50
2010,06,03,16,42,12.30
2010,06,03,16,43,11.00
2010,06,03,16,44,11.80
2010,06,03,16,45,8.10
2010,06,03,16,46,7.00
2010,06,03,16,47,4.70
2010,06,03,16,48,4.90
2010,06,03,16,49,6.10
2010,06,03,16,50,6.10
2010,06,03,16,51,3.50
2010,06,03,16,52,5.30
2010,06,03,16,53,3.00
2010,06,03,16,54,3.80
2010,06,03,16,55,4.60
2010,06,03,16,56,9.90
2010,06,03,16,57,9.90
2010,06,03,16,58,6.30
2010,06,03,16,59,5.20
2010,06,03,17,00,4.50
2010,06,03,17,01,6.50
2010,06,03,17,02,8.70
2010,06,03,17,03,6.40
2010,06,03,17,04,4.70
2010,06,03,17,05,3.80
2010,06,03,17,06,4.50
2010,06,03,17,07,1.90
2010,06,03,17,08,3.60
2010,06,03,17,09,4.70
2010,06,03,17,10,6.80
2010,06,03,17,11,7.50
2010,06,03,17,12,7.60
2010,06,03,17,13,6.50
2010,06,03,17,14,4.90
2010,06,03,17,15,6.90
2010,06,03,17,16,7.70
2010,06,03,17,17,6.70
2010,06,03,17,18,4.60
2010,06,03,17,19,5.30
2010,06,03,17,20,5.10
2010,06,03,17,21,5.20
2010,06,03,17,22,2.60
2010,06,03,17,23,4.90
2010,06,03,17,24,2.00
2010,06,03,17,25,3.60
2010,06,03,17,26,4.60
2010,06,03,17,27,1.30
2010,06,03,17,28,7.20
2010,06,03,17,29,7.10
2010,06,03,17,30,5.60
2010,06,03,17,31,7.70
2010,06,03,17,32,6.60
2010,06,03,17,33,4.70
2010,06,03,17,34,3.00
2010,06,03,17,35,3.00
2010,06,03,17,36,5.30
2010,06,03,17,37,1.10
2010,06,03,17,38,0.50
2010,06,03,17,39,4.60
2010,06,03,17,40,3.60
2010,06,03,17,41,4.30
2010,06,03,17,42,3.90
2010,06,03,17,43,2.80
2010,06,03,17,44,5.90
2010,06,03,17,45,6.40
2010,06,03,17,46,6.90
2010,06,03,17,47,4.80
2010,06,03,17,48,4.00
2010,06,03,17,49,4.10
2010,06,03,17,50,3.10
2010,06,03,17,51,4.80
2010,06,03,17,52,5.50
2010,06,03,17,53,5.70
2010,06,03,17,54,4.40